TULLARI Weather Reports


time (UTC)temp
C
wind
direction
speed
KPH
gust
KPH
rain 1hr
cm
rain 24hr
cm
rain mn
cm
humidity
%
barometer
mb
20260506120726 7 244 25.7 27.4 0.00 0.00 0.00 74 1015.0
20260506114726 7 242 25.7 27.4 0.00 0.00 0.00 75 1015.0
20260506112727 7 233 25.7 29.0 0.00 0.00 0.00 74 1015.0
20260506110726 8 227 25.7 29.0 0.00 0.00 0.00 72 1015.0
20260506104727 8 220 24.1 27.4 0.00 0.00 0.00 71 1015.0
20260506102728 8 218 20.9 22.5 0.00 0.00 0.00 72 1014.9
20260506100729 8 221 20.9 22.5 0.00 0.00 0.00 75 1014.8
20260506094729 8 223 17.7 20.9 0.00 0.00 0.00 76 1014.7
20260506092728 7 244 12.9 14.5 0.00 0.00 0.00 76 1014.4
20260506090728 7 255 12.9 14.5 0.00 0.00 0.00 75 1014.3
20260506084729 7 265 12.9 14.5 0.00 0.00 0.00 85 1014.1
20260506082729 7 248 12.9 14.5 0.00 0.00 0.00 82 1014.1
20260506080728 7 239 14.5 14.5 0.00 0.00 0.00 82 1014.1
20260506072729 6 247 14.5 16.1 0.00 0.00 0.00 83 1013.8
20260506070728 6 240 14.5 14.5 0.00 0.00 0.00 84 1013.7
20260506060728 5 255 12.9 14.5 0.00 0.00 0.00 83 1013.2
20260506050727 5 273 11.3 17.7 0.00 0.00 0.00 78 1012.7
20260506044728 5 288 11.3 14.5 0.00 0.00 0.00 76 1012.5
20260506042727 5 304 11.3 16.1 0.00 0.00 0.00 74 1012.2
20260506040727 5 304 14.5 17.7 0.00 0.00 0.00 77 1012.0
20260506034728 5 309 14.5 19.3 0.00 0.00 0.00 77 1011.9
20260506032727 5 308 14.5 19.3 0.00 0.00 0.00 79 1011.6
20260506030727 5 302 14.5 19.3 0.00 0.00 0.00 80 1011.5
20260506024727 4 289 14.5 19.3 0.00 0.00 0.00 83 1011.3
20260506022727 5 272 17.7 20.9 0.00 0.00 0.00 83 1011.2
20260506020726 5 271 17.7 20.9 0.00 0.00 0.00 85 1011.1
20260506014727 5 270 17.7 20.9 0.00 0.00 0.00 85 1010.9
20260506012726 5 278 12.9 14.5 0.00 0.00 0.00 87 1010.6
20260506010727 5 284 14.5 17.7 0.00 0.00 0.00 87 1010.4
20260506004726 5 275 14.5 17.7 0.00 0.00 0.00 89 1010.3
20260506002727 5 280 16.1 19.3 0.00 0.00 0.00 90 1010.2
20260506000727 5 289 16.1 20.9 0.00 0.00 0.00 89 1010.1
20260505234727 5 295 14.5 19.3 0.00 0.00 0.00 88 1010.0
20260505232727 4 284 12.9 16.1 0.00 0.00 0.00 90 1009.9
20260505230727 4 284 12.9 17.7 0.00 0.00 0.00 91 1009.8
20260505224726 4 286 16.1 19.3 0.00 0.00 0.00 90 1009.7
20260505222726 5 283 16.1 22.5 0.00 0.00 0.00 91 1009.7
20260505220726 5 284 19.3 22.5 0.00 0.00 0.00 90 1009.7
20260505214727 5 286 17.7 20.9 0.00 0.00 0.00 90 1009.6
20260505212727 5 284 22.5 24.1 0.00 0.00 0.00 89 1009.5
20260505210725 5 285 24.1 27.4 0.00 0.00 0.00 87 1009.4
20260505204726 5 284 22.5 27.4 0.00 0.00 0.00 79 1009.3
20260505202727 5 280 20.9 24.1 0.00 0.00 0.00 77 1009.2
20260505200725 5 280 22.5 27.4 0.00 0.00 0.00 75 1009.0
20260505194725 5 274 24.1 29.0 0.00 0.00 0.00 73 1008.9
20260505192726 5 279 20.9 25.7 0.00 0.00 0.00 75 1008.8
20260505190725 5 278 25.7 29.0 0.00 0.00 0.00 74 1008.7
20260505184725 5 286 27.4 30.6 0.00 0.00 0.00 71 1008.6
20260505182725 5 286 27.4 32.2 0.00 0.00 0.00 69 1008.4
20260505180725 6 283 30.6 35.4 0.00 0.00 0.00 67 1008.2
20260505174725 6 281 24.1 30.6 0.00 0.00 0.00 70 1008.1
20260505172724 6 263 22.5 27.4 0.00 0.00 0.00 80 1008.0
20260505170724 6 253 25.7 29.0 0.00 0.00 0.00 81 1007.9
20260505164724 6 250 30.6 32.2 0.00 0.00 0.00 83 1007.9
20260505162725 6 245 30.6 32.2 0.00 0.00 0.00 85 1007.9
20260505160724 6 247 30.6 33.8 0.00 0.00 0.00 82 1007.8
20260505152724 7 251 30.6 35.4 0.00 0.00 0.00 80 1007.6
20260505150724 7 250 30.6 33.8 0.00 0.00 0.00 80 1007.7
20260505124723 7 266 30.6 35.4 0.00 0.00 0.00 72 1007.0
20260505122724 7 271 30.6 35.4 0.00 0.00 0.00 67 1006.8